This is the latest recevied weather packets stored in our database for station/object IW2LSY-11. If no packets are shown the sender has not sent any weather packets the latest 10 day(s).
| Time | Temp. | Humidity | Pressure | Rain* | Wind** | Luminosity | Snow |
|---|---|---|---|---|---|---|---|
| 1777587612 | 13.89° C | 68% | 1025.2 hPa | - | - | 380 W/m² | - |
| 1777587013 | 13.89° C | 67% | 1025.1 hPa | - | - | 380 W/m² | - |
| 1777586414 | 14.44° C | 66% | 1025.1 hPa | - | - | 380 W/m² | - |
| 1777585813 | 14.44° C | 62% | 1025.1 hPa | - | - | 380 W/m² | - |
| 1777585214 | 15° C | 63% | 1025 hPa | - | - | 381 W/m² | - |
| 1777584613 | 15° C | 62% | 1024.9 hPa | - | - | 381 W/m² | - |
| 1777584014 | 15° C | 62% | 1024.9 hPa | - | - | 381 W/m² | - |
| 1777583414 | 15.56° C | 62% | 1024.9 hPa | - | - | 381 W/m² | - |
| 1777582815 | 15.56° C | 61% | 1024.9 hPa | - | - | 381 W/m² | - |
| 1777582204 | 15.56° C | 61% | 1024.8 hPa | - | - | 382 W/m² | - |
| 1777581605 | 15.56° C | 62% | 1024.8 hPa | - | - | 383 W/m² | - |
| 1777581005 | 15.56° C | 62% | 1024.8 hPa | - | - | 383 W/m² | - |
| 1777580406 | 15.56° C | 60% | 1024.7 hPa | - | - | 384 W/m² | - |
| 1777579806 | 15.56° C | 60% | 1024.5 hPa | - | - | 384 W/m² | - |
| 1777579206 | 15.56° C | 60% | 1024.4 hPa | - | - | 385 W/m² | - |
| 1777578606 | 15.56° C | 60% | 1024.4 hPa | - | - | 385 W/m² | - |
| 1777578007 | 15° C | 62% | 1024.3 hPa | - | - | 385 W/m² | - |
| 1777577408 | 16.11° C | 59% | 1024.2 hPa | - | - | 386 W/m² | - |
| 1777576809 | 15.56° C | 60% | 1024 hPa | - | - | 386 W/m² | - |
| 1777576208 | 15.56° C | 59% | 1023.9 hPa | - | - | 386 W/m² | - |
| 1777575608 | 15.56° C | 58% | 1023.7 hPa | - | - | 387 W/m² | - |
| 1777575008 | 16.11° C | 56% | 1023.6 hPa | - | - | 388 W/m² | - |
| 1777574408 | 16.11° C | 55% | 1023.4 hPa | - | - | 388 W/m² | - |
| 1777573808 | 16.11° C | 56% | 1023.2 hPa | - | - | 389 W/m² | - |
| 1777573209 | 16.67° C | 54% | 1023 hPa | - | - | 390 W/m² | - |
* Rain since midnight (hover to see other rain measurements)
** Current wind speed in m/s (hover to see current wind gust speed)